DLH8FC EDDM-EDDK

Flight info

Callsign DLH8FC
Flight time 0h 47m
Altitude 24000
Route GIVMI6S GIVMI Y101 ERNAS T161 GOLMO DCT AKANU L603 RATIM DCT ASKIK T840 GULKO GULKO1B
Aircraft A320/M-SDE2E3FGIJ1LORWXYZ/HB1

Departure

Time 2026-05-06 16:39
Airport Munich Airport (EDDM)

Arrival

Time 2026-05-06 17:26
Airport Cologne Bonn Airport (EDDK)
Time Latitude Longitude Altitude Speed Heading
2026-05-06 16:05 48.35202 11.79356 1473 ft 0 kts 263°
2026-05-06 16:24 48.35204 11.79376 1469 ft 4 kts 263°
2026-05-06 16:24 48.35207 11.79417 1475 ft 4 kts 263°
2026-05-06 16:25 48.35210 11.79449 1474 ft 4 kts 271°
2026-05-06 16:25 48.35208 11.79474 1471 ft 4 kts 295°
2026-05-06 16:25 48.35192 11.79499 1473 ft 4 kts 351°
2026-05-06 16:25 48.35171 11.79503 1475 ft 1 kts 353°
2026-05-06 16:31 48.35195 11.79499 1473 ft 5 kts 353°
2026-05-06 16:31 48.35236 11.79492 1494 ft 11 kts 353°
2026-05-06 16:32 48.35324 11.79476 1479 ft 13 kts 353°
2026-05-06 16:32 48.35418 11.79460 1476 ft 16 kts 353°
2026-05-06 16:32 48.35534 11.79440 1476 ft 18 kts 353°
2026-05-06 16:32 48.35664 11.79418 1485 ft 20 kts 353°
2026-05-06 16:33 48.35796 11.79394 1474 ft 19 kts 353°
2026-05-06 16:33 48.35902 11.79438 1478 ft 16 kts 70°
2026-05-06 16:33 48.35980 11.79498 1486 ft 10 kts 354°
2026-05-06 16:34 48.35998 11.79495 1481 ft 0 kts 354°
2026-05-06 16:34 48.36001 11.79495 1479 ft 4 kts 354°
2026-05-06 16:35 48.36076 11.79482 1483 ft 14 kts 353°
2026-05-06 16:35 48.36182 11.79467 1476 ft 16 kts
2026-05-06 16:35 48.36224 11.79611 1478 ft 17 kts 84°
2026-05-06 16:35 48.36240 11.79807 1475 ft 20 kts 83°
2026-05-06 16:36 48.36257 11.80023 1485 ft 21 kts 83°
2026-05-06 16:36 48.36275 11.80252 1483 ft 23 kts 83°
2026-05-06 16:36 48.36293 11.80495 1478 ft 24 kts 83°
2026-05-06 16:36 48.36312 11.80745 1477 ft 25 kts 83°
2026-05-06 16:37 48.36332 11.81001 1485 ft 25 kts 83°
2026-05-06 16:37 48.36352 11.81261 1474 ft 25 kts 83°
2026-05-06 16:37 48.36371 11.81512 1485 ft 24 kts 83°
2026-05-06 16:37 48.36391 11.81764 1485 ft 25 kts 83°
2026-05-06 16:38 48.36399 11.81968 1485 ft 17 kts 68°
2026-05-06 16:38 48.36512 11.81991 1476 ft 20 kts 353°
2026-05-06 16:38 48.36650 11.81928 1478 ft 21 kts 299°
2026-05-06 16:38 48.36658 11.81705 1483 ft 23 kts 263°
2026-05-06 16:39 48.36622 11.81249 1478 ft 79 kts 263°
2026-05-06 16:39 48.36532 11.80080 1488 ft 143 kts 263°
2026-05-06 16:39 48.36414 11.78460 1957 ft 156 kts 266°
2026-05-06 16:39 48.36322 11.76852 2789 ft 157 kts 265°
2026-05-06 16:40 48.36200 11.75079 3116 ft 183 kts 264°
2026-05-06 16:40 48.36051 11.73073 3518 ft 203 kts 263°
2026-05-06 16:40 48.35871 11.70856 3857 ft 225 kts 263°
2026-05-06 16:40 48.35804 11.68427 4366 ft 239 kts 281°
2026-05-06 16:41 48.36476 11.66049 4936 ft 260 kts 300°
2026-05-06 16:41 48.37441 11.63656 5673 ft 274 kts 301°
2026-05-06 16:41 48.38455 11.61200 6613 ft 278 kts 300°
2026-05-06 16:41 48.39540 11.58810 7496 ft 285 kts 311°
2026-05-06 16:42 48.41136 11.57000 8419 ft 292 kts 331°
2026-05-06 16:42 48.42972 11.55634 9346 ft 297 kts 332°
2026-05-06 16:42 48.44863 11.54287 10071 ft 309 kts 333°
2026-05-06 16:42 48.46885 11.52869 10424 ft 332 kts 333°
2026-05-06 16:43 48.49020 11.51380 11083 ft 342 kts 333°
2026-05-06 16:43 48.51198 11.49865 11918 ft 346 kts 332°
2026-05-06 16:43 48.53388 11.48338 12775 ft 348 kts 332°
2026-05-06 16:43 48.55596 11.46791 13612 ft 351 kts 331°
2026-05-06 16:44 48.57822 11.45219 14319 ft 356 kts 331°
2026-05-06 16:44 48.60074 11.43620 14997 ft 360 kts 330°
2026-05-06 16:44 48.62357 11.41997 15659 ft 365 kts 330°
2026-05-06 16:44 48.64668 11.40349 16328 ft 370 kts 330°
2026-05-06 16:45 48.67007 11.38680 16999 ft 374 kts 330°
2026-05-06 16:45 48.69377 11.36985 17673 ft 378 kts 329°
2026-05-06 16:45 48.71635 11.34947 18274 ft 379 kts 321°
2026-05-06 16:45 48.73839 11.32719 18856 ft 383 kts 321°
2026-05-06 16:46 48.76062 11.30464 19477 ft 385 kts 321°
2026-05-06 16:46 48.78267 11.28226 20099 ft 388 kts 321°
2026-05-06 16:46 48.80520 11.25939 20692 ft 391 kts 321°
2026-05-06 16:46 48.82792 11.23632 21245 ft 395 kts 321°
2026-05-06 16:47 48.85026 11.21149 21823 ft 395 kts 314°
2026-05-06 16:47 48.87043 11.18356 22383 ft 397 kts 312°
2026-05-06 16:47 48.89057 11.15548 22903 ft 400 kts 313°
2026-05-06 16:47 48.91115 11.12686 23306 ft 402 kts 313°
2026-05-06 16:48 48.93185 11.09808 23651 ft 405 kts 312°
2026-05-06 16:48 48.95111 11.06725 23751 ft 397 kts 303°
2026-05-06 16:48 48.96579 11.03313 23790 ft 376 kts 292°
2026-05-06 16:48 48.97580 10.99691 23787 ft 368 kts 284°
2026-05-06 16:49 48.98398 10.96000 23785 ft 368 kts 284°
2026-05-06 16:49 48.99216 10.92312 23805 ft 368 kts 284°
2026-05-06 16:49 49.00032 10.88624 23807 ft 368 kts 284°
2026-05-06 16:49 49.00850 10.84940 23811 ft 368 kts 284°
2026-05-06 16:50 49.01669 10.81248 23810 ft 368 kts 284°
2026-05-06 16:50 49.02489 10.77558 23821 ft 367 kts 284°
2026-05-06 16:50 49.03304 10.73875 23820 ft 367 kts 284°
2026-05-06 16:50 49.04123 10.70185 23817 ft 368 kts 285°
2026-05-06 16:51 49.05197 10.66611 23823 ft 378 kts 294°
2026-05-06 16:51 49.06467 10.63017 23850 ft 390 kts 294°
2026-05-06 16:51 49.07756 10.59346 23835 ft 394 kts 294°
2026-05-06 16:51 49.08784 10.55515 23832 ft 389 kts 281°
2026-05-06 16:52 49.09418 10.51501 23831 ft 389 kts 279°
2026-05-06 16:52 49.10103 10.47507 23832 ft 390 kts 283°
2026-05-06 16:52 49.11001 10.43594 23832 ft 392 kts 291°
2026-05-06 16:52 49.12451 10.40152 23833 ft 383 kts 308°
2026-05-06 16:53 49.14390 10.37355 23838 ft 383 kts 314°
2026-05-06 16:53 49.16320 10.34571 23834 ft 380 kts 311°
2026-05-06 16:53 49.18175 10.31700 23835 ft 380 kts 310°
2026-05-06 16:53 49.20000 10.28786 23829 ft 379 kts 309°
2026-05-06 16:54 49.21822 10.25867 23828 ft 379 kts 310°
2026-05-06 16:54 49.23657 10.22957 23829 ft 381 kts 310°
2026-05-06 16:54 49.25508 10.20059 23819 ft 381 kts 311°
2026-05-06 16:54 49.27375 10.17167 23817 ft 382 kts 311°
2026-05-06 16:55 49.29248 10.14286 23812 ft 382 kts 311°
2026-05-06 16:55 49.31122 10.11398 23814 ft 381 kts 311°
2026-05-06 16:55 49.33155 10.08673 23811 ft 399 kts 324°
2026-05-06 16:55 49.35667 10.06750 23812 ft 408 kts 334°
2026-05-06 16:56 49.38192 10.04871 23809 ft 394 kts 324°
2026-05-06 16:56 49.40239 10.02225 23808 ft 380 kts 309°
2026-05-06 16:56 49.41998 9.99210 23811 ft 378 kts 308°
2026-05-06 16:56 49.43748 9.96191 23811 ft 378 kts 308°
2026-05-06 16:57 49.45493 9.93175 23811 ft 378 kts 308°
2026-05-06 16:57 49.47236 9.90156 23810 ft 377 kts 308°
2026-05-06 16:57 49.48978 9.87134 23819 ft 378 kts 308°
2026-05-06 16:57 49.50725 9.84106 23810 ft 379 kts 309°
2026-05-06 16:58 49.52471 9.81078 23811 ft 379 kts 308°
2026-05-06 16:58 49.54221 9.78039 23812 ft 379 kts 309°
2026-05-06 16:58 49.55968 9.75001 23813 ft 379 kts 308°
2026-05-06 16:58 49.57714 9.71961 23822 ft 378 kts 308°
2026-05-06 16:59 49.59457 9.68924 23828 ft 378 kts 308°
2026-05-06 16:59 49.61195 9.65894 23829 ft 377 kts 308°
2026-05-06 16:59 49.62929 9.62867 23831 ft 377 kts 308°
2026-05-06 16:59 49.64660 9.59833 23832 ft 376 kts 308°
2026-05-06 17:00 49.66386 9.56803 23831 ft 376 kts 308°
2026-05-06 17:00 49.68114 9.53773 23827 ft 376 kts 308°
2026-05-06 17:00 49.69701 9.50594 23826 ft 372 kts 299°
2026-05-06 17:00 49.71002 9.47146 23826 ft 371 kts 297°
2026-05-06 17:01 49.72285 9.43685 23824 ft 371 kts 297°
2026-05-06 17:01 49.73568 9.40226 23824 ft 371 kts 297°
2026-05-06 17:01 49.74851 9.36764 23820 ft 371 kts 297°
2026-05-06 17:01 49.76131 9.33305 23817 ft 371 kts 297°
2026-05-06 17:02 49.77411 9.29842 23817 ft 370 kts 297°
2026-05-06 17:02 49.78692 9.26382 23808 ft 371 kts 297°
2026-05-06 17:02 49.79974 9.22922 23813 ft 370 kts 297°
2026-05-06 17:02 49.81251 9.19464 23806 ft 370 kts 297°
2026-05-06 17:03 49.82525 9.15997 23805 ft 370 kts 297°
2026-05-06 17:03 49.83799 9.12525 23795 ft 371 kts 297°
2026-05-06 17:03 49.85071 9.09053 23802 ft 371 kts 297°
2026-05-06 17:03 49.86348 9.05567 23802 ft 372 kts 297°
2026-05-06 17:04 49.87627 9.02076 23792 ft 373 kts 297°
2026-05-06 17:04 49.88849 8.98739 23791 ft 374 kts 297°
2026-05-06 17:04 49.90133 8.95229 23788 ft 374 kts 297°
2026-05-06 17:04 49.91417 8.91713 23788 ft 375 kts 297°
2026-05-06 17:05 49.92698 8.88190 23790 ft 375 kts 297°
2026-05-06 17:05 49.93978 8.84664 23791 ft 375 kts 297°
2026-05-06 17:05 49.95259 8.81132 23793 ft 375 kts 297°
2026-05-06 17:05 49.96542 8.77596 23794 ft 375 kts 297°
2026-05-06 17:06 49.97821 8.74065 23797 ft 375 kts 297°
2026-05-06 17:06 49.99102 8.70524 23798 ft 375 kts 297°
2026-05-06 17:06 50.00379 8.66989 23798 ft 376 kts 297°
2026-05-06 17:06 50.01657 8.63445 23799 ft 376 kts 297°
2026-05-06 17:07 50.02928 8.59924 23797 ft 376 kts 298°
2026-05-06 17:07 50.04447 8.56613 23796 ft 377 kts 309°
2026-05-06 17:07 50.06333 8.53837 23551 ft 371 kts 321°
2026-05-06 17:07 50.08523 8.51741 23297 ft 371 kts 333°
2026-05-06 17:08 50.10938 8.50322 23049 ft 371 kts 340°
2026-05-06 17:08 50.13369 8.49031 22765 ft 367 kts 339°
2026-05-06 17:08 50.15776 8.47741 22486 ft 364 kts 339°
2026-05-06 17:08 50.18156 8.46455 22134 ft 360 kts 339°
2026-05-06 17:09 50.19719 8.45605 21835 ft 359 kts 339°
2026-05-06 17:09 50.22070 8.44320 21371 ft 357 kts 339°
2026-05-06 17:09 50.24410 8.43043 20923 ft 355 kts 339°
2026-05-06 17:09 50.26740 8.41779 20464 ft 354 kts 339°
2026-05-06 17:10 50.29030 8.40420 20018 ft 350 kts 332°
2026-05-06 17:10 50.31120 8.38510 19568 ft 347 kts 325°
2026-05-06 17:10 50.33148 8.36479 19141 ft 345 kts 325°
2026-05-06 17:10 50.35171 8.34461 18711 ft 344 kts 324°
2026-05-06 17:11 50.37190 8.32454 18282 ft 343 kts 324°
2026-05-06 17:11 50.39202 8.30447 17813 ft 342 kts 324°
2026-05-06 17:11 50.41204 8.28446 17373 ft 340 kts 324°
2026-05-06 17:11 50.43191 8.26458 16946 ft 338 kts 324°
2026-05-06 17:12 50.45166 8.24479 16531 ft 336 kts 324°
2026-05-06 17:12 50.47129 8.22505 16105 ft 334 kts 324°
2026-05-06 17:12 50.49086 8.20538 15699 ft 333 kts 324°
2026-05-06 17:12 50.51040 8.18582 15285 ft 333 kts 324°
2026-05-06 17:13 50.52989 8.16628 14876 ft 332 kts 324°
2026-05-06 17:13 50.54933 8.14673 14461 ft 331 kts 324°
2026-05-06 17:13 50.56873 8.12723 14041 ft 331 kts 324°
2026-05-06 17:13 50.58809 8.10773 13632 ft 330 kts 324°
2026-05-06 17:14 50.60736 8.08827 13185 ft 329 kts 324°
2026-05-06 17:14 50.62661 8.06876 12743 ft 327 kts 324°
2026-05-06 17:14 50.64569 8.04938 12299 ft 326 kts 324°
2026-05-06 17:14 50.66468 8.03006 11859 ft 324 kts 324°
2026-05-06 17:15 50.68327 8.01113 11575 ft 318 kts 324°
2026-05-06 17:15 50.70152 7.99259 11403 ft 305 kts 324°
2026-05-06 17:15 50.71916 7.97472 10816 ft 299 kts 324°
2026-05-06 17:15 50.73517 7.95467 10214 ft 290 kts 308°
2026-05-06 17:16 50.74565 7.92795 9766 ft 286 kts 288°
2026-05-06 17:16 50.74968 7.89777 9412 ft 278 kts 269°
2026-05-06 17:16 50.74794 7.86775 9088 ft 273 kts 260°
2026-05-06 17:16 50.74524 7.83770 8763 ft 272 kts 261°
2026-05-06 17:17 50.74266 7.80865 8452 ft 270 kts 261°
2026-05-06 17:17 50.74000 7.77894 8134 ft 269 kts 261°
2026-05-06 17:17 50.73744 7.75014 7825 ft 268 kts 261°
2026-05-06 17:17 50.73481 7.72061 7509 ft 267 kts 261°
2026-05-06 17:18 50.73225 7.69200 7200 ft 266 kts 261°
2026-05-06 17:18 50.72962 7.66312 6902 ft 265 kts 261°
2026-05-06 17:18 50.72698 7.63439 6599 ft 262 kts 261°
2026-05-06 17:18 50.72441 7.60624 6305 ft 257 kts 261°
2026-05-06 17:19 50.72190 7.57867 6093 ft 248 kts 262°
2026-05-06 17:19 50.71948 7.55238 5964 ft 236 kts 261°
2026-05-06 17:19 50.71716 7.52722 5726 ft 230 kts 262°
2026-05-06 17:19 50.71481 7.50300 5520 ft 214 kts 258°
2026-05-06 17:20 50.71116 7.48053 5272 ft 211 kts 257°
2026-05-06 17:20 50.70839 7.45785 5013 ft 210 kts 266°
2026-05-06 17:20 50.70743 7.43500 4787 ft 208 kts 268°
2026-05-06 17:20 50.70615 7.41220 4518 ft 209 kts 269°
2026-05-06 17:21 50.70790 7.38985 4347 ft 203 kts 290°
2026-05-06 17:21 50.71410 7.37047 4144 ft 195 kts 308°
2026-05-06 17:21 50.72347 7.35540 3901 ft 192 kts 319°
2026-05-06 17:21 50.73329 7.34133 3636 ft 190 kts 319°
2026-05-06 17:22 50.74307 7.32729 3376 ft 190 kts 319°
2026-05-06 17:22 50.75274 7.31340 3126 ft 185 kts 319°
2026-05-06 17:22 50.76201 7.30007 2886 ft 174 kts 319°
2026-05-06 17:22 50.77078 7.28746 2640 ft 168 kts 319°
2026-05-06 17:23 50.77934 7.27520 2448 ft 164 kts 320°
2026-05-06 17:23 50.78783 7.26312 2222 ft 164 kts 320°
2026-05-06 17:23 50.79624 7.25100 1976 ft 163 kts 318°
2026-05-06 17:23 50.80457 7.23883 1745 ft 163 kts 318°
2026-05-06 17:24 50.81257 7.22704 1490 ft 148 kts 318°
2026-05-06 17:24 50.81968 7.21676 1323 ft 132 kts 319°
2026-05-06 17:24 50.82658 7.20706 1125 ft 134 kts 319°
2026-05-06 17:24 50.83354 7.19713 941 ft 135 kts 319°
2026-05-06 17:25 50.84045 7.18721 694 ft 133 kts 319°
2026-05-06 17:25 50.84693 7.17723 550 ft 129 kts 316°
2026-05-06 17:25 50.85347 7.16797 407 ft 125 kts 318°
2026-05-06 17:25 50.85983 7.15899 304 ft 115 kts 317°
2026-05-06 17:26 50.86477 7.15179 281 ft 75 kts 317°
2026-05-06 17:26 50.86822 7.14682 265 ft 60 kts 317°
2026-05-06 17:26 50.87102 7.14277 251 ft 50 kts 317°
2026-05-06 17:26 50.87341 7.13933 242 ft 45 kts 318°
2026-05-06 17:27 50.87557 7.13621 240 ft 39 kts 317°
2026-05-06 17:27 50.87742 7.13353 239 ft 34 kts 318°
2026-05-06 17:27 50.87846 7.13122 239 ft 20 kts 263°
2026-05-06 17:27 50.87811 7.12907 235 ft 22 kts 257°
2026-05-06 17:28 50.87789 7.12688 234 ft 18 kts 287°
2026-05-06 17:28 50.87896 7.12618 232 ft 19 kts 11°
2026-05-06 17:28 50.88000 7.12573 232 ft 16 kts 313°
2026-05-06 17:28 50.88062 7.12408 232 ft 19 kts 302°
2026-05-06 17:29 50.88117 7.12233 233 ft 17 kts 298°
2026-05-06 17:29 50.88182 7.12093 232 ft 13 kts 307°
2026-05-06 17:29 50.88173 7.12021 232 ft 6 kts 213°
2026-05-06 17:29 50.88157 7.12004 232 ft 1 kts 214°
2026-05-06 17:30 50.88152 7.11998 232 ft 0 kts 215°
2026-05-06 17:30 50.88151 7.11997 232 ft 1 kts 215°
2026-05-06 17:30 50.88150 7.11996 232 ft 0 kts 215°